アトラス彗星

C/2022 E2 ( ATLAS )

English version
Home page
Updated on July 16, 2022

---------------------------------------------------------------------

・ プロフィール

発見日 2022年3月7日
発見光度 18.7等
発見者 Asteroid Terrestrial-Impact Last Alert System (ATLAS) search program

・ 写真集

・ 軌道要素

Epoch 2022 Aug. 9.0 TT = JDT 2459800.5
T 2024 Sept. 13.76857 TT                                Rudenko
q   3.6666251            (2000.0)            P               Q
z  -0.0004060      Peri.   41.66907     -0.03474663     +0.83130311
 +/-0.0000091      Node   125.35414     +0.63783124     -0.40887640
e   1.0014885      Incl.  137.14388     +0.76939195     +0.37650396
From 202 observations 2022 Feb. 23-July 8, mean residual 0".4.

・ 星図

・ 光度変化

        m1 = 4.5 + 5 logΔ + 10.0 log r

---------------------------------------------------------------------

軌道要素はM.P.E.C. 2022-O01に掲載されたものです。
星図はステラナビゲータ Ver.10 (アストロアーツ) で作成したものです。
光度グラフはComet for Windowsで作成したものです。

---------------------------------------------------------------------

Copyright(C) Seiichi Yoshida (comet@aerith.net). All rights reserved.